| time (UTC) | temp C | wind direction | speed KPH | gust KPH | rain 1hr cm | rain 24hr cm | rain mn cm | humidity % | barometer mb |
| 20260505235040 | 8 | 258 | 6.4 | 14.5 | 0.00 | 0.00 | 0.00 | 45 | 1012.8 |
| 20260505234537 | 8 | 247 | 6.4 | 12.9 | 0.00 | 0.00 | 0.00 | 44 | 1012.6 |
| 20260505234033 | 8 | 228 | 6.4 | 11.3 | 0.00 | 0.00 | 0.00 | 44 | 1012.9 |
| 20260505233531 | 8 | 243 | 3.2 | 3.2 | 0.00 | 0.00 | 0.00 | 45 | 1012.9 |
| 20260505233028 | 8 | 252 | 6.4 | 8.0 | 0.00 | 0.00 | 0.00 | 45 | 1012.7 |
| 20260505232526 | 8 | 217 | 6.4 | 8.0 | 0.00 | 0.00 | 0.00 | 44 | 1012.8 |
| 20260505232023 | 8 | 245 | 3.2 | 11.3 | 0.00 | 0.00 | 0.00 | 44 | 1012.8 |
| 20260505231520 | 8 | 255 | 4.8 | 8.0 | 0.00 | 0.00 | 0.00 | 44 | 1012.7 |
| 20260505231019 | 8 | 191 | 1.6 | 17.7 | 0.00 | 0.00 | 0.00 | 45 | 1012.8 |
| 20260505230516 | 8 | 236 | 6.4 | 11.3 | 0.00 | 0.00 | 0.00 | 44 | 1012.8 |
| 20260505230012 | 8 | 219 | 3.2 | 14.5 | 0.00 | 0.00 | 0.00 | 44 | 1012.6 |
| 20260505225509 | 8 | 142 | 3.2 | 9.7 | 0.00 | 0.00 | 0.00 | 44 | 1012.8 |
| 20260505225005 | 8 | 232 | 4.8 | 11.3 | 0.00 | 0.00 | 0.00 | 45 | 1012.7 |
| 20260505224502 | 8 | 146 | 0.0 | 3.2 | 0.00 | 0.00 | 0.00 | 46 | 1012.8 |
| 20260505223959 | 8 | 185 | 4.8 | 11.3 | 0.00 | 0.00 | 0.00 | 44 | 1012.5 |
| 20260505223456 | 8 | 253 | 8.0 | 12.9 | 0.00 | 0.00 | 0.00 | 44 | 1012.8 |
| 20260505222952 | 8 | 183 | 11.3 | 17.7 | 0.00 | 0.00 | 0.00 | 44 | 1012.6 |
| 20260505222449 | 9 | 211 | 11.3 | 17.7 | 0.00 | 0.00 | 0.00 | 43 | 1012.7 |
| 20260505221944 | 9 | 271 | 4.8 | 12.9 | 0.00 | 0.00 | 0.00 | 43 | 1012.7 |
| 20260505221442 | 8 | 257 | 9.7 | 12.9 | 0.00 | 0.00 | 0.00 | 43 | 1012.7 |
| 20260505220939 | 8 | 129 | 1.6 | 14.5 | 0.00 | 0.00 | 0.00 | 44 | 1012.7 |
| 20260505220436 | 8 | 211 | 14.5 | 16.1 | 0.00 | 0.00 | 0.00 | 44 | 1012.7 |
| 20260505215934 | 8 | 181 | 1.6 | 14.5 | 0.00 | 0.00 | 0.00 | 44 | 1012.8 |
| 20260505215432 | 8 | 162 | 9.7 | 14.5 | 0.00 | 0.00 | 0.00 | 44 | 1012.8 |
| 20260505214929 | 8 | 191 | 4.8 | 9.7 | 0.00 | 0.00 | 0.00 | 44 | 1012.7 |
| 20260505214427 | 8 | 158 | 9.7 | 12.9 | 0.00 | 0.00 | 0.00 | 44 | 1012.8 |
| 20260505213924 | 9 | 183 | 8.0 | 24.1 | 0.00 | 0.00 | 0.00 | 44 | 1012.9 |
| 20260505213421 | 8 | 233 | 4.8 | 20.9 | 0.00 | 0.00 | 0.00 | 44 | 1012.8 |
| 20260505212917 | 9 | 221 | 6.4 | 17.7 | 0.00 | 0.00 | 0.00 | 43 | 1012.8 |
| 20260505212414 | 8 | 183 | 12.9 | 16.1 | 0.00 | 0.00 | 0.00 | 43 | 1012.9 |
| 20260505211911 | 9 | 201 | 3.2 | 11.3 | 0.00 | 0.00 | 0.00 | 44 | 1012.9 |
| 20260505211409 | 8 | 201 | 6.4 | 11.3 | 0.00 | 0.00 | 0.00 | 43 | 1012.7 |
| 20260505210904 | 9 | 239 | 4.8 | 11.3 | 0.00 | 0.00 | 0.00 | 44 | 1012.9 |
| 20260505210402 | 8 | 268 | 4.8 | 14.5 | 0.00 | 0.00 | 0.00 | 44 | 1012.9 |
| 20260505205859 | 8 | 249 | 3.2 | 4.8 | 0.00 | 0.00 | 0.00 | 44 | 1013.0 |
| 20260505205357 | 9 | 249 | 4.8 | 11.3 | 0.00 | 0.00 | 0.00 | 43 | 1013.0 |
| 20260505204853 | 8 | 284 | 4.8 | 8.0 | 0.00 | 0.00 | 0.00 | 44 | 1012.8 |
| 20260505204351 | 9 | 214 | 8.0 | 16.1 | 0.00 | 0.00 | 0.00 | 42 | 1013.0 |
| 20260505203848 | 9 | 239 | 14.5 | 16.1 | 0.00 | 0.00 | 0.00 | 41 | 1012.8 |
| 20260505203345 | 8 | 206 | 9.7 | 22.5 | 0.00 | 0.00 | 0.00 | 43 | 1012.8 |
| 20260505202841 | 8 | 239 | 4.8 | 4.8 | 0.00 | 0.00 | 0.00 | 44 | 1013.0 |
| 20260505202337 | 8 | 185 | 8.0 | 20.9 | 0.00 | 0.00 | 0.00 | 43 | 1012.9 |
| 20260505201834 | 9 | 218 | 11.3 | 24.1 | 0.00 | 0.00 | 0.00 | 42 | 1012.8 |
| 20260505201332 | 8 | 193 | 3.2 | 14.5 | 0.00 | 0.00 | 0.00 | 43 | 1013.0 |
| 20260505200830 | 8 | 154 | 8.0 | 12.9 | 0.00 | 0.00 | 0.00 | 43 | 1013.0 |
| 20260505200326 | 8 | 157 | 1.6 | 11.3 | 0.00 | 0.00 | 0.00 | 44 | 1013.1 |
| 20260505195822 | 8 | 226 | 8.0 | 20.9 | 0.00 | 0.00 | 0.00 | 42 | 1012.9 |
| 20260505195319 | 8 | 160 | 4.8 | 16.1 | 0.00 | 0.00 | 0.00 | 43 | 1012.9 |
| 20260505194816 | 8 | 152 | 4.8 | 20.9 | 0.00 | 0.00 | 0.00 | 43 | 1012.9 |
| 20260505194314 | 8 | 212 | 11.3 | 22.5 | 0.00 | 0.00 | 0.00 | 42 | 1013.1 |
| 20260505193808 | 9 | 217 | 12.9 | 16.1 | 0.00 | 0.00 | 0.00 | 42 | 1012.9 |
| 20260505193307 | 8 | 208 | 9.7 | 20.9 | 0.00 | 0.00 | 0.00 | 43 | 1012.9 |
| 20260505192805 | 8 | 167 | 6.4 | 16.1 | 0.00 | 0.00 | 0.00 | 43 | 1012.9 |
| 20260505192305 | 8 | 239 | 9.7 | 24.1 | 0.00 | 0.00 | 0.00 | 43 | 1013.1 |
| 20260505191800 | 8 | 215 | 6.4 | 14.5 | 0.00 | 0.00 | 0.00 | 43 | 1013.1 |
| 20260505191258 | 8 | 231 | 8.0 | 16.1 | 0.00 | 0.00 | 0.00 | 42 | 1013.0 |
| 20260505190754 | 8 | 235 | 8.0 | 14.5 | 0.00 | 0.00 | 0.00 | 42 | 1013.0 |
| 20260505190249 | 8 | 255 | 8.0 | 17.7 | 0.00 | 0.00 | 0.00 | 42 | 1013.1 |
| 20260505185746 | 8 | 247 | 12.9 | 17.7 | 0.00 | 0.00 | 0.00 | 42 | 1013.3 |
| 20260505185243 | 8 | 202 | 6.4 | 14.5 | 0.00 | 0.00 | 0.00 | 42 | 1013.1 |
| 20260505184738 | 8 | 191 | 4.8 | 16.1 | 0.00 | 0.00 | 0.00 | 43 | 1013.1 |
| 20260505184236 | 8 | 182 | 11.3 | 20.9 | 0.00 | 0.00 | 0.00 | 44 | 1013.1 |
| 20260505183733 | 8 | 165 | 6.4 | 22.5 | 0.00 | 0.00 | 0.00 | 43 | 1013.1 |
| 20260505183230 | 8 | 231 | 6.4 | 14.5 | 0.00 | 0.00 | 0.00 | 43 | 1013.1 |
| 20260505182726 | 8 | 257 | 14.5 | 22.5 | 0.00 | 0.00 | 0.00 | 43 | 1013.1 |
| 20260505182224 | 8 | 253 | 9.7 | 16.1 | 0.00 | 0.00 | 0.00 | 43 | 1013.0 |
| 20260505181720 | 8 | 221 | 6.4 | 16.1 | 0.00 | 0.00 | 0.00 | 44 | 1013.1 |
| 20260505181217 | 9 | 207 | 4.8 | 9.7 | 0.00 | 0.00 | 0.00 | 42 | 1013.0 |
| 20260505180714 | 8 | 219 | 8.0 | 14.5 | 0.00 | 0.00 | 0.00 | 43 | 1013.2 |
| 20260505180211 | 8 | 222 | 6.4 | 11.3 | 0.00 | 0.00 | 0.00 | 42 | 1013.1 |
| 20260505175707 | 8 | 251 | 8.0 | 22.5 | 0.00 | 0.00 | 0.00 | 43 | 1013.0 |
| 20260505175203 | 8 | 179 | 4.8 | 11.3 | 0.00 | 0.00 | 0.00 | 42 | 1013.1 |
| 20260505174700 | 7 | 204 | 6.4 | 14.5 | 0.00 | 0.00 | 0.00 | 44 | 1012.9 |
| 20260505174156 | 8 | 162 | 8.0 | 17.7 | 0.00 | 0.00 | 0.00 | 43 | 1013.1 |
| 20260505173653 | 8 | 229 | 6.4 | 14.5 | 0.00 | 0.00 | 0.00 | 42 | 1013.0 |
| 20260505173150 | 8 | 195 | 6.4 | 9.7 | 0.00 | 0.00 | 0.00 | 43 | 1013.2 |
| 20260505172647 | 8 | 95 | 1.6 | 8.0 | 0.00 | 0.00 | 0.00 | 46 | 1013.4 |
| 20260505172144 | 7 | 268 | 6.4 | 11.3 | 0.00 | 0.00 | 0.00 | 44 | 1013.3 |
| 20260505171643 | 8 | 217 | 8.0 | 20.9 | 0.00 | 0.00 | 0.00 | 42 | 1013.2 |
| 20260505171141 | 8 | 294 | 4.8 | 9.7 | 0.00 | 0.00 | 0.00 | 41 | 1013.3 |
| 20260505170638 | 8 | 129 | 9.7 | 17.7 | 0.00 | 0.00 | 0.00 | 42 | 1013.3 |
| 20260505170134 | 8 | 238 | 17.7 | 24.1 | 0.00 | 0.00 | 0.00 | 41 | 1013.5 |
| 20260505165629 | 8 | 216 | 12.9 | 14.5 | 0.00 | 0.00 | 0.00 | 42 | 1013.4 |
| 20260505165125 | 8 | 197 | 6.4 | 22.5 | 0.00 | 0.00 | 0.00 | 42 | 1013.2 |
| 20260505164621 | 7 | 230 | 6.4 | 24.1 | 0.00 | 0.00 | 0.00 | 42 | 1013.3 |
| 20260505164119 | 7 | 167 | 9.7 | 17.7 | 0.00 | 0.00 | 0.00 | 42 | 1013.3 |
| 20260505163617 | 7 | 219 | 9.7 | 16.1 | 0.00 | 0.00 | 0.00 | 45 | 1013.3 |
| 20260505163114 | 6 | 151 | 4.8 | 8.0 | 0.00 | 0.00 | 0.00 | 45 | 1013.4 |
| 20260505162612 | 7 | 215 | 3.2 | 14.5 | 0.00 | 0.00 | 0.00 | 46 | 1013.2 |
| 20260505162109 | 7 | 9 | 1.6 | 9.7 | 0.00 | 0.00 | 0.00 | 44 | 1013.1 |
| 20260505161606 | 6 | 295 | 3.2 | 12.9 | 0.00 | 0.00 | 0.00 | 45 | 1013.4 |
| 20260505161104 | 6 | 230 | 6.4 | 12.9 | 0.00 | 0.00 | 0.00 | 45 | 1013.2 |
| 20260505160601 | 7 | 247 | 9.7 | 17.7 | 0.00 | 0.00 | 0.00 | 44 | 1013.3 |
| 20260505153038 | 6 | 183 | 8.0 | 22.5 | 0.00 | 0.00 | 0.00 | 45 | 1013.3 |
| 20260505152535 | 7 | 253 | 3.2 | 9.7 | 0.00 | 0.00 | 0.00 | 45 | 1013.1 |
| 20260505152030 | 6 | 106 | 1.6 | 11.3 | 0.00 | 0.00 | 0.00 | 47 | 1013.2 |
| 20260505151525 | 6 | 179 | 6.4 | 11.3 | 0.00 | 0.00 | 0.00 | 47 | 1013.2 |
| 20260505151023 | 6 | 256 | 6.4 | 17.7 | 0.00 | 0.00 | 0.00 | 47 | 1013.0 |
| 20260505150519 | 6 | 233 | 16.1 | 22.5 | 0.00 | 0.00 | 0.00 | 46 | 1013.0 |
| 20260505140444 | 5 | 208 | 6.4 | 11.3 | 0.00 | 0.00 | 0.00 | 48 | 1012.6 |
| 20260505124857 | 3 | 275 | 1.6 | 12.9 | 0.00 | 0.00 | 0.00 | 55 | 1012.3 |
| 20260505124355 | 4 | 219 | 4.8 | 9.7 | 0.00 | 0.00 | 0.00 | 55 | 1011.8 |
| 20260505123850 | 3 | 249 | 3.2 | 4.8 | 0.00 | 0.00 | 0.00 | 55 | 1011.8 |
| 20260505123347 | 3 | 217 | 3.2 | 9.7 | 0.00 | 0.00 | 0.00 | 57 | 1011.8 |
| 20260505122843 | 3 | 223 | 3.2 | 9.7 | 0.00 | 0.00 | 0.00 | 56 | 1011.5 |
| 20260505122341 | 3 | 210 | 9.7 | 12.9 | 0.00 | 0.00 | 0.00 | 57 | 1011.6 |
| 20260505121837 | 3 | 188 | 4.8 | 9.7 | 0.00 | 0.00 | 0.00 | 57 | 1011.6 |
| 20260505121334 | 3 | 281 | 6.4 | 8.0 | 0.00 | 0.00 | 0.00 | 58 | 1011.5 |
| 20260505120830 | 3 | 161 | 3.2 | 4.8 | 0.00 | 0.00 | 0.00 | 60 | 1011.4 |
| 20260505120327 | 3 | 197 | 1.6 | 4.8 | 0.00 | 0.00 | 0.00 | 61 | 1011.2 |
| 20260505115826 | 3 | 167 | 3.2 | 3.2 | 0.00 | 0.00 | 0.00 | 61 | 1011.3 |
| 20260505115323 | 3 | 231 | 3.2 | 8.0 | 0.00 | 0.00 | 0.00 | 62 | 1011.0 |
| 20260505114821 | 3 | 266 | 4.8 | 11.3 | 0.00 | 0.00 | 0.00 | 63 | 1011.0 |
| 20260505114317 | 2 | 194 | 4.8 | 4.8 | 0.00 | 0.00 | 0.00 | 64 | 1010.9 |
| 20260505113813 | 2 | 229 | 4.8 | 9.7 | 0.00 | 0.00 | 0.00 | 65 | 1010.7 |
| 20260505113309 | 2 | 202 | 3.2 | 4.8 | 0.00 | 0.00 | 0.00 | 65 | 1010.8 |
| 20260505112805 | 2 | 226 | 11.3 | 14.5 | 0.00 | 0.00 | 0.00 | 65 | 1010.6 |
| 20260505112305 | 2 | 229 | 3.2 | 8.0 | 0.00 | 0.00 | 0.00 | 66 | 1010.9 |
| 20260505111759 | 2 | 245 | 3.2 | 9.7 | 0.00 | 0.00 | 0.00 | 65 | 1010.5 |
| 20260505111254 | 2 | 187 | 1.6 | 4.8 | 0.00 | 0.00 | 0.00 | 65 | 1010.6 |
| 20260505110750 | 2 | 214 | 4.8 | 8.0 | 0.00 | 0.00 | 0.00 | 65 | 1010.5 |
| 20260505110248 | 2 | 242 | 3.2 | 9.7 | 0.00 | 0.00 | 0.00 | 65 | 1010.6 |
| 20260505101722 | 3 | 217 | 3.2 | 8.0 | 0.00 | 0.00 | 0.00 | 65 | 1010.5 |
| 20260505101218 | 3 | 264 | 3.2 | 11.3 | 0.00 | 0.00 | 0.00 | 66 | 1010.3 |
| 20260505100715 | 3 | 234 | 1.6 | 4.8 | 0.00 | 0.00 | 0.00 | 65 | 1010.3 |
| 20260505100212 | 3 | 248 | 4.8 | 9.7 | 0.00 | 0.00 | 0.00 | 65 | 1010.3 |
| 20260505095707 | 3 | 242 | 3.2 | 9.7 | 0.00 | 0.00 | 0.00 | 65 | 1010.1 |
| 20260505095205 | 3 | 224 | 11.3 | 14.5 | 0.00 | 0.00 | 0.00 | 65 | 1010.0 |
| 20260505094700 | 3 | 221 | 6.4 | 11.3 | 0.00 | 0.00 | 0.00 | 65 | 1010.1 |
| 20260505094157 | 3 | 308 | 4.8 | 11.3 | 0.00 | 0.00 | 0.00 | 64 | 1010.2 |
| 20260505093653 | 3 | 172 | 0.0 | 8.0 | 0.00 | 0.00 | 0.00 | 65 | 1009.9 |
| 20260505093151 | 3 | 228 | 1.6 | 4.8 | 0.00 | 0.00 | 0.00 | 65 | 1009.8 |
| 20260505092648 | 3 | 194 | 1.6 | 9.7 | 0.00 | 0.00 | 0.00 | 64 | 1009.9 |
| 20260505092147 | 3 | 247 | 3.2 | 9.7 | 0.00 | 0.00 | 0.00 | 63 | 1009.8 |
| 20260505091643 | 3 | 214 | 6.4 | 12.9 | 0.00 | 0.00 | 0.00 | 64 | 1009.9 |
| 20260505091141 | 3 | 239 | 4.8 | 9.7 | 0.00 | 0.00 | 0.00 | 64 | 1009.9 |
| 20260505090638 | 3 | 240 | 1.6 | 9.7 | 0.00 | 0.00 | 0.00 | 63 | 1010.0 |
| 20260505090137 | 3 | 199 | 1.6 | 4.8 | 0.00 | 0.00 | 0.00 | 63 | 1009.7 |
| 20260505085633 | 4 | 203 | 6.4 | 9.7 | 0.00 | 0.00 | 0.00 | 62 | 1009.7 |
| 20260505085132 | 4 | 172 | 3.2 | 12.9 | 0.00 | 0.00 | 0.00 | 62 | 1009.7 |
| 20260505084629 | 4 | 358 | 1.6 | 8.0 | 0.00 | 0.00 | 0.00 | 62 | 1009.5 |
| 20260505084128 | 4 | 256 | 1.6 | 14.5 | 0.00 | 0.00 | 0.00 | 61 | 1009.4 |
| 20260505083625 | 4 | 156 | 0.0 | 9.7 | 0.00 | 0.00 | 0.00 | 61 | 1009.2 |
| 20260505083121 | 4 | 236 | 4.8 | 8.0 | 0.00 | 0.00 | 0.00 | 60 | 1009.5 |
| 20260505082616 | 5 | 246 | 1.6 | 9.7 | 0.00 | 0.00 | 0.00 | 60 | 1009.4 |
| 20260505070827 | 5 | 215 | 3.2 | 4.8 | 0.00 | 0.00 | 0.00 | 56 | 1008.8 |
| 20260505070323 | 5 | 215 | 3.2 | 4.8 | 0.00 | 0.00 | 0.00 | 56 | 1008.8 |
| 20260505065819 | 5 | 245 | 4.8 | 11.3 | 0.00 | 0.00 | 0.00 | 55 | 1008.9 |
| 20260505065316 | 5 | 257 | 11.3 | 17.7 | 0.00 | 0.00 | 0.00 | 55 | 1008.8 |
| 20260505064813 | 5 | 224 | 4.8 | 16.1 | 0.00 | 0.00 | 0.00 | 55 | 1009.0 |
| 20260505064310 | 6 | 213 | 4.8 | 12.9 | 0.00 | 0.00 | 0.00 | 55 | 1009.0 |
| 20260505063808 | 6 | 222 | 8.0 | 16.1 | 0.00 | 0.00 | 0.00 | 55 | 1008.9 |
| 20260505063304 | 6 | 233 | 1.6 | 14.5 | 0.00 | 0.00 | 0.00 | 56 | 1009.1 |
| 20260505062800 | 6 | 199 | 4.8 | 9.7 | 0.00 | 0.00 | 0.00 | 56 | 1008.7 |
| 20260505062258 | 6 | 271 | 4.8 | 9.7 | 0.00 | 0.00 | 0.00 | 56 | 1009.0 |
| 20260505061754 | 6 | 232 | 3.2 | 14.5 | 0.00 | 0.00 | 0.00 | 54 | 1009.0 |
| 20260505061253 | 6 | 245 | 11.3 | 17.7 | 0.00 | 0.00 | 0.00 | 55 | 1009.1 |
| 20260505060750 | 6 | 216 | 3.2 | 12.9 | 0.00 | 0.00 | 0.00 | 55 | 1009.1 |
| 20260505060247 | 6 | 216 | 3.2 | 11.3 | 0.00 | 0.00 | 0.00 | 54 | 1009.1 |
| 20260505055742 | 6 | 197 | 9.7 | 12.9 | 0.00 | 0.00 | 0.00 | 54 | 1008.8 |
| 20260505055238 | 6 | 236 | 4.8 | 8.0 | 0.00 | 0.00 | 0.00 | 54 | 1009.1 |
| 20260505054736 | 6 | 238 | 4.8 | 16.1 | 0.00 | 0.00 | 0.00 | 54 | 1009.0 |
| 20260505054233 | 6 | 261 | 6.4 | 12.9 | 0.00 | 0.00 | 0.00 | 54 | 1009.0 |
| 20260505053732 | 6 | 233 | 4.8 | 9.7 | 0.00 | 0.00 | 0.00 | 54 | 1008.8 |
| 20260505053222 | 6 | 260 | 6.4 | 17.7 | 0.00 | 0.00 | 0.00 | 54 | 1008.6 |
| 20260505052719 | 6 | 173 | 1.6 | 8.0 | 0.00 | 0.00 | 0.00 | 55 | 1008.6 |
| 20260505052216 | 6 | 220 | 1.6 | 8.0 | 0.00 | 0.00 | 0.00 | 54 | 1008.8 |
| 20260505051713 | 6 | 244 | 4.8 | 8.0 | 0.00 | 0.00 | 0.00 | 54 | 1008.7 |
| 20260505051211 | 6 | 264 | 11.3 | 14.5 | 0.00 | 0.00 | 0.00 | 54 | 1008.8 |
| 20260505050709 | 7 | 255 | 4.8 | 8.0 | 0.00 | 0.00 | 0.00 | 54 | 1008.6 |
| 20260505050207 | 7 | 201 | 4.8 | 12.9 | 0.00 | 0.00 | 0.00 | 54 | 1008.4 |
| 20260505041631 | 6 | 214 | 0.0 | 1.6 | 0.00 | 0.00 | 0.00 | 56 | 1008.4 |
| 20260505041128 | 7 | 244 | 1.6 | 4.8 | 0.00 | 0.00 | 0.00 | 55 | 1008.6 |
| 20260505040625 | 7 | 193 | 0.0 | 3.2 | 0.00 | 0.00 | 0.00 | 54 | 1008.7 |
| 20260505040122 | 7 | 199 | 3.2 | 4.8 | 0.00 | 0.00 | 0.00 | 53 | 1008.4 |
| 20260505035619 | 7 | 247 | 4.8 | 8.0 | 0.00 | 0.00 | 0.00 | 52 | 1008.4 |
| 20260505035115 | 7 | 234 | 8.0 | 12.9 | 0.00 | 0.00 | 0.00 | 51 | 1008.3 |
| 20260505034612 | 7 | 221 | 4.8 | 11.3 | 0.00 | 0.00 | 0.00 | 52 | 1008.4 |
| 20260505034109 | 7 | 229 | 3.2 | 8.0 | 0.00 | 0.00 | 0.00 | 51 | 1008.2 |
| 20260505033605 | 7 | 249 | 4.8 | 9.7 | 0.00 | 0.00 | 0.00 | 51 | 1008.4 |
| 20260505033104 | 7 | 190 | 11.3 | 14.5 | 0.00 | 0.00 | 0.00 | 51 | 1008.3 |
| 20260505032601 | 7 | 260 | 3.2 | 4.8 | 0.00 | 0.00 | 0.00 | 51 | 1008.4 |
| 20260505032057 | 7 | 205 | 1.6 | 8.0 | 0.00 | 0.00 | 0.00 | 50 | 1008.4 |
| 20260505031555 | 7 | 186 | 1.6 | 9.7 | 0.00 | 0.00 | 0.00 | 49 | 1008.4 |
| 20260505031051 | 7 | 246 | 1.6 | 4.8 | 0.00 | 0.00 | 0.00 | 50 | 1008.3 |
| 20260505030548 | 7 | 212 | 1.6 | 11.3 | 0.00 | 0.00 | 0.00 | 49 | 1008.6 |
| 20260505030044 | 7 | 231 | 4.8 | 4.8 | 0.00 | 0.00 | 0.00 | 49 | 1008.4 |
| 20260505025540 | 7 | 196 | 4.8 | 11.3 | 0.00 | 0.00 | 0.00 | 49 | 1008.3 |
| 20260505025039 | 7 | 204 | 6.4 | 12.9 | 0.00 | 0.00 | 0.00 | 49 | 1008.3 |
| 20260505024536 | 7 | 221 | 6.4 | 11.3 | 0.00 | 0.00 | 0.00 | 48 | 1008.3 |
| 20260505024033 | 7 | 180 | 1.6 | 8.0 | 0.00 | 0.00 | 0.00 | 49 | 1008.1 |
| 20260505023530 | 7 | 230 | 3.2 | 8.0 | 0.00 | 0.00 | 0.00 | 48 | 1008.0 |
| 20260505023028 | 7 | 250 | 4.8 | 9.7 | 0.00 | 0.00 | 0.00 | 48 | 1007.9 |
| 20260505022525 | 7 | 202 | 4.8 | 9.7 | 0.00 | 0.00 | 0.00 | 47 | 1008.0 |
| 20260505022022 | 8 | 236 | 1.6 | 3.2 | 0.00 | 0.00 | 0.00 | 48 | 1007.7 |
| 20260505021518 | 8 | 241 | 4.8 | 9.7 | 0.00 | 0.00 | 0.00 | 47 | 1007.6 |
| 20260505021015 | 8 | 229 | 6.4 | 11.3 | 0.00 | 0.00 | 0.00 | 47 | 1007.8 |
| 20260505020515 | 8 | 264 | 3.2 | 9.7 | 0.00 | 0.00 | 0.00 | 46 | 1007.6 |
| 20260505020012 | 8 | 243 | 4.8 | 11.3 | 0.00 | 0.00 | 0.00 | 46 | 1007.6 |
| 20260505015509 | 8 | 204 | 4.8 | 17.7 | 0.00 | 0.00 | 0.00 | 46 | 1007.6 |
| 20260505015006 | 8 | 203 | 6.4 | 9.7 | 0.00 | 0.00 | 0.00 | 46 | 1007.6 |
| 20260505014503 | 8 | 259 | 1.6 | 8.0 | 0.00 | 0.00 | 0.00 | 46 | 1007.5 |
| 20260505014000 | 8 | 234 | 4.8 | 20.9 | 0.00 | 0.00 | 0.00 | 46 | 1007.5 |
| 20260505013457 | 8 | 214 | 6.4 | 17.7 | 0.00 | 0.00 | 0.00 | 46 | 1007.2 |
| 20260505012954 | 8 | 181 | 4.8 | 17.7 | 0.00 | 0.00 | 0.00 | 46 | 1007.4 |
| 20260505012452 | 8 | 246 | 8.0 | 12.9 | 0.00 | 0.00 | 0.00 | 46 | 1007.1 |
| 20260505011949 | 8 | 228 | 9.7 | 22.5 | 0.00 | 0.00 | 0.00 | 47 | 1007.1 |
| 20260505011445 | 8 | 226 | 4.8 | 14.5 | 0.00 | 0.00 | 0.00 | 47 | 1006.8 |
| 20260505010942 | 9 | 238 | 6.4 | 17.7 | 0.00 | 0.00 | 0.00 | 46 | 1006.6 |
| 20260505010438 | 9 | 256 | 16.1 | 24.1 | 0.00 | 0.00 | 0.00 | 46 | 1006.6 |
| 20260505005934 | 9 | 246 | 17.7 | 24.1 | 0.00 | 0.00 | 0.00 | 46 | 1006.6 |
| 20260505005431 | 10 | 238 | 4.8 | 14.5 | 0.00 | 0.00 | 0.00 | 46 | 1006.5 |
| 20260505004929 | 10 | 220 | 8.0 | 20.9 | 0.00 | 0.00 | 0.00 | 46 | 1006.3 |
| 20260505004425 | 10 | 222 | 4.8 | 25.7 | 0.00 | 0.00 | 0.00 | 45 | 1006.2 |
| 20260505003922 | 10 | 229 | 4.8 | 16.1 | 0.00 | 0.00 | 0.00 | 45 | 1006.2 |
| 20260505003419 | 10 | 252 | 9.7 | 14.5 | 0.00 | 0.00 | 0.00 | 44 | 1006.2 |
| 20260505002915 | 10 | 269 | 6.4 | 14.5 | 0.00 | 0.00 | 0.00 | 44 | 1006.0 |
| 20260505002412 | 10 | 245 | 12.9 | 14.5 | 0.00 | 0.00 | 0.00 | 44 | 1006.0 |
| 20260505001910 | 10 | 223 | 8.0 | 22.5 | 0.00 | 0.00 | 0.00 | 44 | 1006.0 |
| 20260505001407 | 11 | 236 | 9.7 | 17.7 | 0.00 | 0.00 | 0.00 | 44 | 1005.9 |
| 20260505000904 | 11 | 180 | 9.7 | 14.5 | 0.00 | 0.00 | 0.00 | 44 | 1005.8 |
| 20260505000402 | 11 | 255 | 6.4 | 16.1 | 0.00 | 0.00 | 0.00 | 44 | 1005.8 |
| 20260504235858 | 11 | 172 | 8.0 | 14.5 | 0.00 | 0.00 | 0.00 | 44 | 1005.6 |